[Iaude] MPEC F98: 2022 FS2 [a=1.11,e=0.14,i=10.4,H=28.2]

mpec at marsden.cfa.harvard.edu mpec at marsden.cfa.harvard.edu
Sun Mar 27 10:58:02 EDT 2022


M.P.E.C. 2022-F98                                Issued 2022 March 27, 14:56 UT

     The Minor Planet Electronic Circulars contain information on unusual
         minor planets and routine data on comets.  They are published
    on behalf of Division F of the International Astronomical Union by the
          Minor Planet Center, Smithsonian Astrophysical Observatory,
                          Cambridge, MA 02138, U.S.A.

             Prepared using the Tamkin Foundation Computer Network

                              MPC at CFA.HARVARD.EDU
            URL https://www.minorplanetcenter.net/    ISSN 1523-6714

                                    2022 FS2                                    


Observations:
     K22F02S* C2022 03 26.25116710 44 37.15 -12 02 46.0                VEF098V00
     K22F02S  C2022 03 26.25604210 44 34.82 -12 05 14.4          20.77GVEF098V00
     K22F02S  C2022 03 26.26089410 44 32.45 -12 07 41.7          20.40GVEF098V00
     K22F02S  C2022 03 26.26575010 44 30.02 -12 10 11.2          20.99GVEF098V00
     K22F02S  C2022 03 26.29236810 44 14.95 -12 24 00.5          20.3 GVEF098H01
     K22F02S  C2022 03 26.29608010 44 13.17 -12 25 53.2          20.4 GVEF098H01
     K22F02S  C2022 03 26.30592210 44 08.52 -12 30 51.6          20.2 GVEF098H01
     K22F02S KC2022 03 26.31431910 44 04.58 -12 35 05.8          19.8 GVEF098H01
     K22F02S KC2022 03 26.31775710 44 04.33 -12 36 42.6          20.41GVEF098I52
     K22F02S KC2022 03 26.31927610 44 03.62 -12 37 28.5          20.45GVEF098I52
     K22F02S KC2022 03 26.32457510 44 01.11 -12 40 07.6          20.15GVEF098I52
     K22F02S KC2022 03 26.32609610 44 00.40 -12 40 53.5          19.92GVEF098I52
     K22F02S |C2022 03 27.00819 10 41 18.79 -17 45 49.0          20.9 GVEF098807
     K22F02S |C2022 03 27.01185 10 41 17.34 -17 47 22.6          20.6 GVEF098807
     K22F02S |C2022 03 27.01556 10 41 15.88 -17 48 56.5          20.6 GVEF098807
     K22F02S |C2022 03 27.01913 10 41 14.48 -17 50 27.1          20.7 GVEF098807
     K22F02S  C2022 03 27.19377810 40 22.18 -19 08 36.0          20.7 GVEF098654
     K22F02S KC2022 03 27.19948310 40 16.99 -19 10 47.5          20.81GVEF098I52
     K22F02S KC2022 03 27.20130610 40 16.23 -19 11 30.6          20.85GVEF098I52
     K22F02S KC2022 03 27.20312910 40 15.51 -19 12 13.5          20.53GVEF098I52
     K22F02S KC2022 03 27.20495210 40 14.74 -19 12 56.8          21.22GVEF098I52
     K22F02S  C2022 03 27.21429510 40 13.74 -19 16 43.1          20.8 GVEF098654
     K22F02S  C2022 03 27.23564510 40 05.00 -19 25 04.9          20.9 GVEF098654

Observer details:
654 Table Mountain Observatory, Wrightwood-PHMC.  Observers N. Evans, P. Choi,
    N. Saini, C. Zhai, R. Trahan, M. Shao.  1.0-m reflector + CCD.
807 Cerro Tololo Observatory, La Serena.  Observers T. Linder, R. Holmes, L.
    Horn.  1.00-m f/10.0 astrograph + CCD.
H01 Magdalena Ridge Observatory, Socorro.  Observers W. H. Ryan, E. V. Ryan.
    Measurer W. H. Ryan.  2.4-m f/8.9 Ritchey-Chretien + CCD.
I52 Steward Observatory, Mt. Lemmon Station.  Observers G. J. Leonard, H.
    Groeller.  Measurers E. J. Christensen, G. A. Farneth, J. B. Fazekas, D.
    C. Fuls, A. R. Gibbs, A. D. Grauer, H. Groeller, J. K. Hogan, R. A.
    Kowalski, S. M. Larson, G. J. Leonard, D. Rankin, R. L. Seaman, A.
    Serrano, F. C. Shelly, K. W. Wierzchos.
V00 Kitt Peak-Bok.  Observer H. Groeller.  Measurers M. J. Brucker, E. J.
    Christensen, C. E. Woodward, G. A. Farneth, J. B. Fazekas, D. C. Fuls, A.
    R. Gibbs, A. D. Grauer, H. Groeller, R. A. Kowalski, S. M. Larson, G. J.
    Leonard, R. S. McMillan, D. Rankin, R. L. Seaman, A. Serrano, F. C.
    Shelly, K. W. Wierzchos.  2.25-m reflector + CCD.

Orbital elements:
2022 FS2                                                 Earth MOID = 0.0118 AU
Epoch 2022 Jan. 21.0 TT = JDT 2459600.5                 Veres                   
M 351.63906              (2000.0)            P               Q                  
n   0.84621048     Peri.  122.76077     -0.58862962     -0.80833402             
a   1.1070072      Node     3.35619     +0.66826980     -0.49389506             
e   0.1385688      Incl.   10.38140     +0.45489631     -0.32041190             
P   1.16           H   28.26          G   0.15           U   6                  
Residuals in seconds of arc
220326 V00 (1.3-  2.8-)   220326 I52  0.1-  0.0     220327 654 (1.2+  0.1-)
220326 V00  0.2+  0.2-    220326 I52  0.0   0.1-    220327 I52  0.0   0.2-
220326 V00 (0.9+  2.5+)   220326 I52  0.3-  0.3+    220327 I52  0.1-  0.0
220326 V00 (0.7+  2.9+)   220326 I52  0.3-  0.0     220327 I52  0.4+  0.2+
220326 H01  0.1-  0.0     220327 807  0.1+  0.2+    220327 I52  0.2+  0.1+
220326 H01  0.2-  0.2+    220327 807  0.2-  0.3-    220327 654  0.3-  0.0
220326 H01  0.1+  0.4+    220327 807  0.1-  0.0     220327 654  0.1-  0.1-
220326 H01  0.0   0.0     220327 807  0.1+  0.0

Ephemeris:
2022 FS2                 a,e,i = 1.11, 0.14, 10                  q = 0.9536
Date    TT    R. A. (2000) Decl.     Delta      r    Elong.  Phase     V
2022 02 25    21 41 48.0 +63 30 08   0.09211 0.9675    73.4   101.4    26.7
...
2022 03 12    20 50 24.5 +73 36 22   0.04153 0.9877    80.8    96.8    24.8
...
2022 03 20    12 29 13.6 +70 17 04   0.01661 1.0014   109.9    69.2    21.8
...
2022 03 26    10 45 59.3 -09 41 44   0.01678 1.0127   155.8    23.8    20.5
2022 03 27    10 41 02.1 -17 44 15   0.01939 1.0146   150.9    28.6    21.0
2022 03 28    10 37 04.8 -23 45 42   0.02231 1.0166   146.4    32.9    21.4
...
2022 04 03    10 24 51.6 -40 15 03   0.04239 1.0288   132.5    45.8    23.2
...
2022 04 11    10 22 18.2 -46 31 25   0.07112 1.0458   126.5    50.3    24.5
...
2022 04 26    10 33 37.1 -49 19 05   0.1260  1.0795   122.8    51.6    25.8

M. P. C. Staff               (C) Copyright 2022 MPC           M.P.E.C. 2022-F98




More information about the Iaude mailing list